星链-4714 (STARLINK-4714 )

导读

STARLINK-4714是美国SpaceX公司于2022年9月5日发射的星链(Starlink)低轨通信卫星,属于星链星座组网计划的组成部分。星链项目旨在构建全球卫星互联网,为偏远地区、移动场景提供高速低延迟宽带服务。该卫星运行在近地轨道,通过与其他星链卫星协同,助力实现全球无缝网络覆盖,目前星链已在超60个国家提供服务,推动了全球互联网接入的普及化。

Basic Information
目录编号:
53704
目录名称:
STARLINK-4714
国际标识:
2022-107E
轨道中心:
EARTH
卫星名称:
星链-4714
卫星全名:
星链-4714 (STARLINK-4714 )
卫星状态:
在轨 (已飞行1381 天)
发射日期:
2022-09-05 UTC
国别 :
美国 (US)
星等 :
--
Orbit Information
数据来源 国际轨道数据 AOE轨道数据
星历时间 2026-06-16T14:39:47+0800
1天前
查看轨道信息
2026-06-15T06:00:00+0800
2天前
查看轨道信息
半长轴 6917.86km 6917.915km
偏心率 0.0001216 0.0001855
轨道倾角 53.160° 53.161°
近地点辐角 84.568° 26.809°
升交点赤经 161.707° 167.833°
平近点角 275.545° 136.712°
近地点 538.881km 538.494km
远地点 540.565km 541.062km
周期 95.437分钟 95.438分钟
每日圈数 15.088469 15.08829
Detailed Information
固有亮度:
5
最大亮度:
2.5
卫星平台:
Starlink v1.5
覆盖范围:
全球
运营商:
太空探索技术公司
运营商所在国:
美国
制造商(研发单位):
太空探索技术公司
制造商所在国:
美国
使用方式:
暂无
Satellite Introduction
星链(Starlink)计划是由太空探索技术公司(SpaceX)提出的一个巨型低轨卫星互联网星座项目,计划在2019年至2024年间在太空搭建由约1.2万颗卫星组成的“星链”网络,其中1584颗将部署在地球上空550千米处的近地轨道,并从2020年开始工作。该卫星仍在工作。
2D Orbit Map
3D Orbit Map
Orbit Altitude Analysis Chart
Orbit Inclination Analysis Chart
Orbit Comprehensive Analysis Chart
View Comprehensive Chart